contact:dominique.lefevre@mio.osupytheas.fr, maurice.libes@osupytheas.fr, didier.mallarino@osupytheas.fr
Project:EMSO http://www.emso-fr.org/EMSO-France
Depth: 2436.0 m
Title:EMSO Ligure Ouest : Data MII capteur MICROCAT
DateTime_Computer,Latitude,Longitude,Temperature,Conductivity,Pressure,DateTime_Instrument
DateTime_Computer,Latitude,Longitude,degC,S m-1,dbar,DateTime_Instrument
2017-11-30T00:01:31Z,42.805,6.029,13.2950,4.60001,2471.979,2017-11-30T02:03:00Z
2017-11-30T00:04:34Z,42.805,6.029,13.2953,4.59994,2471.987,2017-11-30T02:06:03Z
2017-11-30T00:07:37Z,42.805,6.029,13.2954,4.60021,2471.987,2017-11-30T02:09:06Z
2017-11-30T00:10:40Z,42.805,6.029,13.2975,4.60025,2472.002,2017-11-30T02:12:08Z
2017-11-30T00:13:43Z,42.805,6.029,13.2988,4.60031,2471.987,2017-11-30T02:15:11Z
2017-11-30T00:16:46Z,42.805,6.029,13.2982,4.60010,2472.002,2017-11-30T02:18:14Z
2017-11-30T00:19:48Z,42.805,6.029,13.2959,4.60031,2472.002,2017-11-30T02:21:17Z
2017-11-30T00:22:51Z,42.805,6.029,13.2970,4.60029,2472.01,2017-11-30T02:24:20Z
2017-11-30T00:25:54Z,42.805,6.029,13.2982,4.60042,2472.024,2017-11-30T02:27:23Z
2017-11-30T00:28:57Z,42.805,6.029,13.2977,4.60028,2472.01,2017-11-30T02:30:26Z
2017-11-30T00:32:00Z,42.805,6.029,13.2977,4.60040,2472.024,2017-11-30T02:33:29Z
2017-11-30T00:35:03Z,42.805,6.029,13.2973,4.60022,2472.055,2017-11-30T02:36:32Z
2017-11-30T00:38:06Z,42.805,6.029,13.2970,4.60044,2472.047,2017-11-30T02:39:34Z
2017-11-30T00:41:09Z,42.805,6.029,13.2983,4.60016,2472.024,2017-11-30T02:42:37Z
2017-11-30T00:44:12Z,42.805,6.029,13.2978,4.60009,2472.047,2017-11-30T02:45:40Z
2017-11-30T00:47:14Z,42.805,6.029,13.2980,4.60027,2472.024,2017-11-30T02:48:43Z
2017-11-30T00:50:17Z,42.805,6.029,13.2973,4.60034,2472.024,2017-11-30T02:51:46Z
2017-11-30T00:53:20Z,42.805,6.029,13.2988,4.59999,2472.047,2017-11-30T02:54:49Z
2017-11-30T00:56:23Z,42.805,6.029,13.2973,4.59978,2472.024,2017-11-30T02:57:52Z
2017-11-30T00:59:26Z,42.805,6.029,13.2974,4.60031,2472.024,2017-11-30T03:00:55Z
2017-11-30T01:02:29Z,42.805,6.029,13.2961,4.60044,2472.024,2017-11-30T03:03:58Z
2017-11-30T01:05:32Z,42.805,6.029,13.2986,4.59994,2472.047,2017-11-30T03:07:00Z
2017-11-30T01:08:35Z,42.805,6.029,13.2973,4.59999,2472.032,2017-11-30T03:10:03Z
2017-11-30T01:11:38Z,42.805,6.029,13.2981,4.59979,2472.047,2017-11-30T03:13:06Z
2017-11-30T01:14:41Z,42.805,6.029,13.2971,4.60004,2472.032,2017-11-30T03:16:09Z
2017-11-30T01:17:43Z,42.805,6.029,13.2978,4.60023,2472.047,2017-11-30T03:19:12Z
2017-11-30T01:20:46Z,42.805,6.029,13.2973,4.60021,2472.047,2017-11-30T03:22:15Z
2017-11-30T01:23:49Z,42.805,6.029,13.2961,4.60004,2472.032,2017-11-30T03:25:18Z
2017-11-30T01:26:52Z,42.805,6.029,13.2991,4.59999,2472.055,2017-11-30T03:28:21Z
2017-11-30T01:29:55Z,42.805,6.029,13.2979,4.59990,2472.055,2017-11-30T03:31:24Z
2017-11-30T01:32:58Z,42.805,6.029,13.2963,4.60023,2472.032,2017-11-30T03:34:26Z
2017-11-30T01:36:01Z,42.805,6.029,13.2994,4.60041,2472.032,2017-11-30T03:37:29Z
2017-11-30T01:39:04Z,42.805,6.029,13.2991,4.60018,2472.032,2017-11-30T03:40:32Z
2017-11-30T01:42:07Z,42.805,6.029,13.2986,4.60003,2472.032,2017-11-30T03:43:35Z
2017-11-30T01:45:09Z,42.805,6.029,13.2991,4.59987,2472.069,2017-11-30T03:46:38Z
2017-11-30T01:48:12Z,42.805,6.029,13.2979,4.59987,2472.092,2017-11-30T03:49:41Z
2017-11-30T01:51:15Z,42.805,6.029,13.2958,4.59988,2472.069,2017-11-30T03:52:44Z
2017-11-30T01:54:18Z,42.805,6.029,13.2957,4.59989,2472.069,2017-11-30T03:55:47Z
2017-11-30T01:57:21Z,42.805,6.029,13.2974,4.59968,2472.092,2017-11-30T03:58:50Z
2017-11-30T02:00:24Z,42.805,6.029,13.2949,4.59983,2472.055,2017-11-30T04:01:53Z
2017-11-30T02:03:27Z,42.805,6.029,13.2958,4.60007,2472.069,2017-11-30T04:04:55Z
2017-11-30T02:06:30Z,42.805,6.029,13.2961,4.59975,2472.092,2017-11-30T04:07:58Z
2017-11-30T02:09:33Z,42.805,6.029,13.2960,4.59972,2472.092,2017-11-30T04:11:01Z
2017-11-30T02:12:35Z,42.805,6.029,13.2976,4.59984,2472.077,2017-11-30T04:14:04Z
2017-11-30T02:15:38Z,42.805,6.029,13.2964,4.60018,2472.055,2017-11-30T04:17:07Z
2017-11-30T02:18:41Z,42.805,6.029,13.2962,4.60010,2472.092,2017-11-30T04:20:10Z
2017-11-30T02:21:44Z,42.805,6.029,13.2973,4.60008,2472.055,2017-11-30T04:23:13Z
2017-11-30T02:24:47Z,42.805,6.029,13.2995,4.59978,2472.069,2017-11-30T04:26:16Z
2017-11-30T02:27:50Z,42.805,6.029,13.2964,4.59983,2472.069,2017-11-30T04:29:19Z
2017-11-30T02:30:53Z,42.805,6.029,13.2950,4.60029,2472.092,2017-11-30T04:32:21Z
2017-11-30T02:33:56Z,42.805,6.029,13.2968,4.60004,2472.092,2017-11-30T04:35:24Z
2017-11-30T02:36:59Z,42.805,6.029,13.2984,4.59998,2472.077,2017-11-30T04:38:27Z
2017-11-30T02:40:01Z,42.805,6.029,13.2978,4.60006,2472.115,2017-11-30T04:41:30Z
2017-11-30T02:43:04Z,42.805,6.029,13.2961,4.60008,2472.115,2017-11-30T04:44:33Z
2017-11-30T02:46:07Z,42.805,6.029,13.2954,4.59994,2472.115,2017-11-30T04:47:36Z
2017-11-30T02:49:10Z,42.805,6.029,13.2949,4.59985,2472.115,2017-11-30T04:50:39Z
2017-11-30T02:52:13Z,42.805,6.029,13.2955,4.59984,2472.077,2017-11-30T04:53:42Z
2017-11-30T02:55:16Z,42.805,6.029,13.2961,4.59991,2472.115,2017-11-30T04:56:45Z
2017-11-30T02:58:19Z,42.805,6.029,13.2967,4.59990,2472.1,2017-11-30T04:59:47Z
2017-11-30T03:01:22Z,42.805,6.029,13.2953,4.60015,2472.123,2017-11-30T05:02:50Z
2017-11-30T03:04:25Z,42.805,6.029,13.2968,4.60032,2472.077,2017-11-30T05:05:53Z
2017-11-30T03:07:28Z,42.805,6.029,13.2959,4.60030,2472.077,2017-11-30T05:08:56Z
2017-11-30T03:10:30Z,42.805,6.029,13.2951,4.60023,2472.137,2017-11-30T05:11:59Z
2017-11-30T03:13:33Z,42.805,6.029,13.2978,4.59995,2472.092,2017-11-30T05:15:02Z
2017-11-30T03:16:36Z,42.805,6.029,13.2965,4.60023,2472.137,2017-11-30T05:18:05Z
2017-11-30T03:19:39Z,42.805,6.029,13.2953,4.60035,2472.115,2017-11-30T05:21:08Z
2017-11-30T03:22:42Z,42.805,6.029,13.2966,4.60021,2472.1,2017-11-30T05:24:11Z
2017-11-30T03:25:45Z,42.805,6.029,13.2996,4.59983,2472.115,2017-11-30T05:27:13Z
2017-11-30T03:28:48Z,42.805,6.029,13.2982,4.60018,2472.115,2017-11-30T05:30:16Z
2017-11-30T03:31:51Z,42.805,6.029,13.2980,4.60027,2472.115,2017-11-30T05:33:19Z
2017-11-30T03:34:54Z,42.805,6.029,13.3006,4.60008,2472.145,2017-11-30T05:36:22Z
2017-11-30T03:37:56Z,42.805,6.029,13.2996,4.60008,2472.077,2017-11-30T05:39:25Z
2017-11-30T03:40:59Z,42.805,6.029,13.2988,4.60013,2472.1,2017-11-30T05:42:28Z
2017-11-30T03:44:02Z,42.805,6.029,13.2981,4.60032,2472.145,2017-11-30T05:45:31Z
2017-11-30T03:47:05Z,42.805,6.029,13.2954,4.60057,2472.137,2017-11-30T05:48:34Z
2017-11-30T03:50:08Z,42.805,6.029,13.2980,4.60027,2472.137,2017-11-30T05:51:37Z
2017-11-30T03:53:11Z,42.805,6.029,13.2988,4.60035,2472.115,2017-11-30T05:54:40Z
2017-11-30T03:56:14Z,42.805,6.029,13.2998,4.60068,2472.1,2017-11-30T05:57:42Z
2017-11-30T03:59:17Z,42.805,6.029,13.3011,4.60037,2472.137,2017-11-30T06:00:45Z
2017-11-30T04:02:20Z,42.805,6.029,13.2985,4.60041,2472.115,2017-11-30T06:03:48Z
2017-11-30T04:05:22Z,42.805,6.029,13.2987,4.60051,2472.137,2017-11-30T06:06:51Z
2017-11-30T04:08:25Z,42.805,6.029,13.2995,4.60026,2472.137,2017-11-30T06:09:54Z
2017-11-30T04:11:28Z,42.805,6.029,13.3007,4.60061,2472.123,2017-11-30T06:12:57Z
2017-11-30T04:14:31Z,42.805,6.029,13.3002,4.60074,2472.115,2017-11-30T06:16:00Z
2017-11-30T04:17:34Z,42.805,6.029,13.2999,4.60006,2472.1,2017-11-30T06:19:03Z
2017-11-30T04:20:37Z,42.805,6.029,13.2998,4.60058,2472.123,2017-11-30T06:22:06Z
2017-11-30T04:23:40Z,42.805,6.029,13.3003,4.60050,2472.137,2017-11-30T06:25:08Z
2017-11-30T04:26:43Z,42.805,6.029,13.2989,4.60041,2472.137,2017-11-30T06:28:11Z
2017-11-30T04:29:46Z,42.805,6.029,13.2967,4.60054,2472.145,2017-11-30T06:31:14Z
2017-11-30T04:32:49Z,42.805,6.029,13.2989,4.60009,2472.137,2017-11-30T06:34:17Z
2017-11-30T04:35:51Z,42.805,6.029,13.2966,4.60069,2472.16,2017-11-30T06:37:20Z
2017-11-30T04:38:54Z,42.805,6.029,13.2966,4.60068,2472.137,2017-11-30T06:40:23Z
2017-11-30T04:41:57Z,42.805,6.029,13.2961,4.60069,2472.16,2017-11-30T06:43:26Z
2017-11-30T04:45:00Z,42.805,6.029,13.2967,4.60033,2472.137,2017-11-30T06:46:29Z
2017-11-30T04:48:03Z,42.805,6.029,13.2981,4.60079,2472.16,2017-11-30T06:49:32Z
2017-11-30T04:51:06Z,42.805,6.029,13.2966,4.60063,2472.123,2017-11-30T06:52:34Z
2017-11-30T04:54:09Z,42.805,6.029,13.2972,4.60052,2472.16,2017-11-30T06:55:37Z
2017-11-30T04:57:12Z,42.805,6.029,13.2984,4.59987,2472.123,2017-11-30T06:58:40Z
2017-11-30T05:00:15Z,42.805,6.029,13.2959,4.60046,2472.137,2017-11-30T07:01:43Z
2017-11-30T05:03:17Z,42.805,6.029,13.2966,4.60072,2472.137,2017-11-30T07:04:46Z
2017-11-30T05:06:20Z,42.805,6.029,13.2977,4.60067,2472.16,2017-11-30T07:07:49Z
2017-11-30T05:09:23Z,42.805,6.029,13.2975,4.60046,2472.123,2017-11-30T07:10:52Z
2017-11-30T05:12:26Z,42.805,6.029,13.2980,4.60044,2472.137,2017-11-30T07:13:55Z
2017-11-30T05:15:29Z,42.805,6.029,13.2975,4.60066,2472.115,2017-11-30T07:16:58Z
2017-11-30T05:18:32Z,42.805,6.029,13.2951,4.60045,2472.137,2017-11-30T07:20:01Z
2017-11-30T05:21:35Z,42.805,6.029,13.2966,4.60029,2472.123,2017-11-30T07:23:03Z
2017-11-30T05:24:38Z,42.805,6.029,13.2974,4.60050,2472.115,2017-11-30T07:26:06Z
2017-11-30T05:27:41Z,42.805,6.029,13.2982,4.60043,2472.115,2017-11-30T07:29:09Z
2017-11-30T05:30:43Z,42.805,6.029,13.2981,4.60072,2472.115,2017-11-30T07:32:12Z
2017-11-30T05:33:46Z,42.805,6.029,13.2975,4.60069,2472.123,2017-11-30T07:35:15Z
2017-11-30T05:36:49Z,42.805,6.029,13.2988,4.60059,2472.115,2017-11-30T07:38:18Z
2017-11-30T05:39:52Z,42.805,6.029,13.3001,4.60066,2472.1,2017-11-30T07:41:21Z
2017-11-30T05:42:55Z,42.805,6.029,13.2997,4.60060,2472.115,2017-11-30T07:44:24Z
2017-11-30T05:45:58Z,42.805,6.029,13.2986,4.60021,2472.115,2017-11-30T07:47:27Z
2017-11-30T05:49:01Z,42.805,6.029,13.2966,4.60094,2472.137,2017-11-30T07:50:29Z
2017-11-30T05:52:04Z,42.805,6.029,13.2975,4.60028,2472.123,2017-11-30T07:53:32Z
2017-11-30T05:55:07Z,42.805,6.029,13.2978,4.60030,2472.115,2017-11-30T07:56:35Z
2017-11-30T05:58:10Z,42.805,6.029,13.2972,4.60024,2472.137,2017-11-30T07:59:38Z
2017-11-30T06:01:12Z,42.805,6.029,13.2964,4.59995,2472.115,2017-11-30T08:02:41Z
2017-11-30T06:04:15Z,42.805,6.029,13.2957,4.60025,2472.137,2017-11-30T08:05:44Z
2017-11-30T06:07:18Z,42.805,6.029,13.2975,4.60064,2472.115,2017-11-30T08:08:47Z
2017-11-30T06:10:21Z,42.805,6.029,13.2956,4.60038,2472.137,2017-11-30T08:11:50Z
2017-11-30T06:13:24Z,42.805,6.029,13.2970,4.60064,2472.115,2017-11-30T08:14:53Z
2017-11-30T06:16:27Z,42.805,6.029,13.2965,4.60031,2472.115,2017-11-30T08:17:56Z
2017-11-30T06:19:30Z,42.805,6.029,13.2973,4.60012,2472.1,2017-11-30T08:20:58Z
2017-11-30T06:22:33Z,42.805,6.029,13.2954,4.60019,2472.092,2017-11-30T08:24:01Z
2017-11-30T06:25:36Z,42.805,6.029,13.2961,4.60023,2472.115,2017-11-30T08:27:04Z
2017-11-30T06:28:38Z,42.805,6.029,13.2970,4.60028,2472.137,2017-11-30T08:30:07Z
2017-11-30T06:31:41Z,42.805,6.029,13.2964,4.60023,2472.092,2017-11-30T08:33:10Z
2017-11-30T06:34:44Z,42.805,6.029,13.2969,4.60032,2472.115,2017-11-30T08:36:13Z
2017-11-30T06:37:47Z,42.805,6.029,13.2983,4.60039,2472.1,2017-11-30T08:39:16Z
2017-11-30T06:40:50Z,42.805,6.029,13.2966,4.60010,2472.092,2017-11-30T08:42:19Z
2017-11-30T06:43:53Z,42.805,6.029,13.2970,4.60038,2472.1,2017-11-30T08:45:22Z
2017-11-30T06:46:56Z,42.805,6.029,13.2973,4.60021,2472.077,2017-11-30T08:48:24Z
2017-11-30T06:49:59Z,42.805,6.029,13.2965,4.60028,2472.077,2017-11-30T08:51:27Z
2017-11-30T06:53:02Z,42.805,6.029,13.2971,4.60026,2472.137,2017-11-30T08:54:30Z
2017-11-30T06:56:04Z,42.805,6.029,13.2973,4.60024,2472.077,2017-11-30T08:57:33Z
2017-11-30T06:59:07Z,42.805,6.029,13.2979,4.60032,2472.069,2017-11-30T09:00:36Z
2017-11-30T07:02:10Z,42.805,6.029,13.2972,4.60001,2472.115,2017-11-30T09:03:39Z
2017-11-30T07:05:13Z,42.805,6.029,13.2967,4.60015,2472.115,2017-11-30T09:06:42Z
2017-11-30T07:08:16Z,42.805,6.029,13.2963,4.60032,2472.077,2017-11-30T09:09:45Z
2017-11-30T07:11:19Z,42.805,6.029,13.2968,4.60018,2472.069,2017-11-30T09:12:48Z
2017-11-30T07:14:22Z,42.805,6.029,13.2975,4.60011,2472.115,2017-11-30T09:15:50Z
2017-11-30T07:17:25Z,42.805,6.029,13.2984,4.60051,2472.092,2017-11-30T09:18:53Z
2017-11-30T07:20:28Z,42.805,6.029,13.2994,4.60046,2472.055,2017-11-30T09:21:56Z
2017-11-30T07:23:30Z,42.805,6.029,13.2976,4.60060,2472.115,2017-11-30T09:24:59Z
2017-11-30T07:26:33Z,42.805,6.029,13.2989,4.60029,2472.092,2017-11-30T09:28:02Z
2017-11-30T07:29:36Z,42.805,6.029,13.2996,4.60041,2472.069,2017-11-30T09:31:05Z
2017-11-30T07:32:39Z,42.805,6.029,13.3006,4.60008,2472.055,2017-11-30T09:34:08Z
2017-11-30T07:35:42Z,42.805,6.029,13.3004,4.60012,2472.092,2017-11-30T09:37:11Z
2017-11-30T07:38:45Z,42.805,6.029,13.2978,4.60040,2472.115,2017-11-30T09:40:14Z
2017-11-30T07:41:48Z,42.805,6.029,13.2974,4.59994,2472.092,2017-11-30T09:43:16Z
2017-11-30T07:44:51Z,42.805,6.029,13.2960,4.59990,2472.092,2017-11-30T09:46:19Z
2017-11-30T07:47:54Z,42.805,6.029,13.2971,4.60202,2472.092,2017-11-30T09:49:22Z
2017-11-30T07:50:57Z,42.805,6.029,13.2939,4.59999,2472.069,2017-11-30T09:52:25Z
2017-11-30T07:53:59Z,42.805,6.029,13.2936,4.59988,2472.092,2017-11-30T09:55:28Z
2017-11-30T07:57:02Z,42.805,6.029,13.2938,4.59992,2472.092,2017-11-30T09:58:31Z
2017-11-30T08:00:05Z,42.805,6.029,13.2948,4.59982,2472.092,2017-11-30T10:01:34Z
2017-11-30T08:03:08Z,42.805,6.029,13.2938,4.59990,2472.092,2017-11-30T10:04:37Z
2017-11-30T08:06:11Z,42.805,6.029,13.2940,4.60018,2472.115,2017-11-30T10:07:40Z
2017-11-30T08:09:14Z,42.805,6.029,13.2941,4.59984,2472.069,2017-11-30T10:10:43Z
2017-11-30T08:12:17Z,42.805,6.029,13.2939,4.60080,2472.069,2017-11-30T10:13:45Z
2017-11-30T08:15:20Z,42.805,6.029,13.2940,4.59998,2472.055,2017-11-30T10:16:48Z
2017-11-30T08:18:23Z,42.805,6.029,13.2937,4.59987,2472.092,2017-11-30T10:19:51Z
2017-11-30T08:21:25Z,42.805,6.029,13.2934,4.59981,2472.069,2017-11-30T10:22:54Z
2017-11-30T08:24:28Z,42.805,6.029,13.3069,4.59984,2472.092,2017-11-30T10:25:57Z
2017-11-30T08:27:31Z,42.805,6.029,13.2939,4.59975,2472.055,2017-11-30T10:29:00Z
2017-11-30T08:30:34Z,42.805,6.029,13.2942,4.59979,2472.077,2017-11-30T10:32:03Z
2017-11-30T08:33:37Z,42.805,6.029,13.2939,4.59971,2472.115,2017-11-30T10:35:06Z
2017-11-30T08:36:40Z,42.805,6.029,13.2939,4.59963,2472.055,2017-11-30T10:38:09Z
2017-11-30T08:39:43Z,42.805,6.029,13.2939,4.59970,2472.069,2017-11-30T10:41:11Z
2017-11-30T08:42:46Z,42.805,6.029,13.2939,4.59962,2472.077,2017-11-30T10:44:14Z
2017-11-30T08:45:49Z,42.805,6.029,13.2938,4.59960,2472.047,2017-11-30T10:47:17Z
2017-11-30T08:48:52Z,42.805,6.029,13.2939,4.59965,2472.069,2017-11-30T10:50:20Z
2017-11-30T08:51:54Z,42.805,6.029,13.2938,4.59963,2472.047,2017-11-30T10:53:23Z
2017-11-30T08:54:57Z,42.805,6.029,13.2940,4.59964,2472.092,2017-11-30T10:56:26Z
2017-11-30T08:58:00Z,42.805,6.029,13.2935,4.59961,2472.055,2017-11-30T10:59:29Z
2017-11-30T09:01:03Z,42.805,6.029,13.2941,4.59961,2472.055,2017-11-30T11:02:32Z
2017-11-30T09:04:06Z,42.805,6.029,13.2939,4.59960,2472.069,2017-11-30T11:05:35Z
2017-11-30T09:07:09Z,42.805,6.029,13.2939,4.59970,2472.069,2017-11-30T11:08:38Z
2017-11-30T09:10:12Z,42.805,6.029,13.2939,4.59963,2472.069,2017-11-30T11:11:40Z
2017-11-30T09:13:15Z,42.805,6.029,13.2940,4.59964,2472.077,2017-11-30T11:14:43Z
2017-11-30T09:16:18Z,42.805,6.029,13.2943,4.59969,2472.047,2017-11-30T11:17:46Z
2017-11-30T09:19:20Z,42.805,6.029,13.2942,4.59970,2472.047,2017-11-30T11:20:49Z
2017-11-30T09:22:23Z,42.805,6.029,13.2938,4.59972,2472.047,2017-11-30T11:23:52Z
2017-11-30T09:25:26Z,42.805,6.029,13.2945,4.59970,2472.047,2017-11-30T11:26:55Z
2017-11-30T09:28:29Z,42.805,6.029,13.2936,4.59967,2472.047,2017-11-30T11:29:58Z
2017-11-30T09:31:32Z,42.805,6.029,13.2939,4.59968,2472.047,2017-11-30T11:33:01Z
2017-11-30T09:34:35Z,42.805,6.029,13.2939,4.59967,2472.069,2017-11-30T11:36:04Z
2017-11-30T09:37:38Z,42.805,6.029,13.2941,4.59968,2472.069,2017-11-30T11:39:07Z
2017-11-30T09:40:41Z,42.805,6.029,13.2936,4.59963,2472.069,2017-11-30T11:42:09Z
2017-11-30T09:43:44Z,42.805,6.029,13.2940,4.59967,2472.055,2017-11-30T11:45:12Z
2017-11-30T09:46:47Z,42.805,6.029,13.2940,4.59969,2472.032,2017-11-30T11:48:15Z
2017-11-30T09:49:49Z,42.805,6.029,13.2937,4.59969,2472.024,2017-11-30T11:51:18Z
2017-11-30T09:52:52Z,42.805,6.029,13.2935,4.59964,2472.032,2017-11-30T11:54:21Z
2017-11-30T09:55:55Z,42.805,6.029,13.2939,4.59970,2472.01,2017-11-30T11:57:24Z
2017-11-30T09:58:58Z,42.805,6.029,13.2939,4.59972,2472.047,2017-11-30T12:00:27Z
2017-11-30T10:02:01Z,42.805,6.029,13.2933,4.59967,2472.024,2017-11-30T12:03:30Z
2017-11-30T10:05:04Z,42.805,6.029,13.2937,4.59967,2472.047,2017-11-30T12:06:33Z
2017-11-30T10:08:07Z,42.805,6.029,13.2942,4.59966,2472.024,2017-11-30T12:09:35Z
2017-11-30T10:11:10Z,42.805,6.029,13.2939,4.59965,2472.047,2017-11-30T12:12:38Z
2017-11-30T10:14:13Z,42.805,6.029,13.2940,4.59965,2472.047,2017-11-30T12:15:41Z
2017-11-30T10:17:16Z,42.805,6.029,13.2936,4.59964,2472.032,2017-11-30T12:18:44Z
2017-11-30T10:20:18Z,42.805,6.029,13.2939,4.59969,2472.047,2017-11-30T12:21:47Z
2017-11-30T10:23:21Z,42.805,6.029,13.2939,4.59964,2472.069,2017-11-30T12:24:50Z
2017-11-30T10:26:24Z,42.805,6.029,13.2935,4.59964,2472.069,2017-11-30T12:27:53Z
2017-11-30T10:29:27Z,42.805,6.029,13.2937,4.59960,2472.01,2017-11-30T12:30:56Z
2017-11-30T10:32:30Z,42.805,6.029,13.2939,4.59964,2472.047,2017-11-30T12:33:59Z
2017-11-30T10:35:33Z,42.805,6.029,13.2940,4.59964,2472.01,2017-11-30T12:37:02Z
2017-11-30T10:38:36Z,42.805,6.029,13.2939,4.59961,2472.024,2017-11-30T12:40:05Z
2017-11-30T10:41:39Z,42.805,6.029,13.2940,4.59963,2472.092,2017-11-30T12:43:07Z
2017-11-30T10:44:42Z,42.805,6.029,13.2943,4.59961,2472.01,2017-11-30T12:46:10Z
2017-11-30T10:47:45Z,42.805,6.029,13.2939,4.59961,2472.032,2017-11-30T12:49:13Z
2017-11-30T10:50:47Z,42.805,6.029,13.2940,4.59964,2472.024,2017-11-30T12:52:16Z
2017-11-30T10:53:50Z,42.805,6.029,13.2940,4.59964,2472.047,2017-11-30T12:55:19Z
2017-11-30T10:56:53Z,42.805,6.029,13.2938,4.59964,2472.024,2017-11-30T12:58:22Z
2017-11-30T10:59:56Z,42.805,6.029,13.2943,4.59964,2472.01,2017-11-30T13:01:25Z
2017-11-30T11:02:59Z,42.805,6.029,13.2940,4.59964,2472.069,2017-11-30T13:04:28Z
2017-11-30T11:06:02Z,42.805,6.029,13.2941,4.59963,2472.047,2017-11-30T13:07:31Z
2017-11-30T11:09:05Z,42.805,6.029,13.2940,4.59962,2472.069,2017-11-30T13:10:33Z
2017-11-30T11:12:08Z,42.805,6.029,13.2943,4.59961,2472.024,2017-11-30T13:13:36Z
2017-11-30T11:15:11Z,42.805,6.029,13.2939,4.59962,2472.024,2017-11-30T13:16:39Z
2017-11-30T11:18:14Z,42.805,6.029,13.2945,4.59976,2472.032,2017-11-30T13:19:42Z
2017-11-30T11:21:16Z,42.805,6.029,13.2943,4.59963,2472.01,2017-11-30T13:22:45Z
2017-11-30T11:24:19Z,42.805,6.029,13.2942,4.59964,2472.024,2017-11-30T13:25:48Z
2017-11-30T11:27:22Z,42.805,6.029,13.2959,4.59981,2472.024,2017-11-30T13:28:51Z
2017-11-30T11:30:25Z,42.805,6.029,13.2939,4.59961,2472.032,2017-11-30T13:31:54Z
2017-11-30T11:33:28Z,42.805,6.029,13.2943,4.59973,2472.01,2017-11-30T13:34:57Z
2017-11-30T11:36:31Z,42.805,6.029,13.2950,4.59978,2472.024,2017-11-30T13:38:00Z
2017-11-30T11:39:34Z,42.805,6.029,13.2942,4.59970,2472.024,2017-11-30T13:41:02Z
2017-11-30T11:42:37Z,42.805,6.029,13.2968,4.59981,2472.047,2017-11-30T13:44:05Z
2017-11-30T11:45:40Z,42.805,6.029,13.2957,4.59972,2471.987,2017-11-30T13:47:08Z
2017-11-30T11:48:42Z,42.805,6.029,13.2957,4.59976,2472.032,2017-11-30T13:50:11Z
2017-11-30T11:51:45Z,42.805,6.029,13.2957,4.59995,2472.024,2017-11-30T13:53:14Z
2017-11-30T11:54:48Z,42.805,6.029,13.2940,4.59979,2472.069,2017-11-30T13:56:17Z
2017-11-30T11:57:51Z,42.805,6.029,13.2954,4.60011,2472.032,2017-11-30T13:59:20Z
2017-11-30T12:00:54Z,42.805,6.029,13.2952,4.59993,2472.047,2017-11-30T14:02:23Z
2017-11-30T12:03:57Z,42.805,6.029,13.2964,4.60025,2472.024,2017-11-30T14:05:26Z
2017-11-30T12:07:00Z,42.805,6.029,13.2960,4.60004,2472.047,2017-11-30T14:08:28Z
2017-11-30T12:10:03Z,42.805,6.029,13.2955,4.59982,2472.032,2017-11-30T14:11:31Z
2017-11-30T12:13:06Z,42.805,6.029,13.2951,4.59980,2472.069,2017-11-30T14:14:34Z
2017-11-30T12:16:09Z,42.805,6.029,13.2951,4.59987,2472.047,2017-11-30T14:17:37Z
2017-11-30T12:19:11Z,42.805,6.029,13.2957,4.59988,2472.092,2017-11-30T14:20:40Z
2017-11-30T12:22:14Z,42.805,6.029,13.2959,4.59998,2472.047,2017-11-30T14:23:43Z
2017-11-30T12:25:17Z,42.805,6.029,13.2960,4.60001,2472.024,2017-11-30T14:26:46Z
2017-11-30T12:28:20Z,42.805,6.029,13.2953,4.59990,2472.032,2017-11-30T14:29:49Z
2017-11-30T12:31:23Z,42.805,6.029,13.2957,4.60015,2472.069,2017-11-30T14:32:52Z
2017-11-30T12:34:26Z,42.805,6.029,13.2961,4.60023,2472.047,2017-11-30T14:35:55Z
2017-11-30T12:37:29Z,42.805,6.029,13.2955,4.60014,2472.047,2017-11-30T14:38:57Z
2017-11-30T12:40:32Z,42.805,6.029,13.2952,4.60000,2472.047,2017-11-30T14:42:00Z
2017-11-30T12:43:35Z,42.805,6.029,13.2960,4.60007,2472.055,2017-11-30T14:45:03Z
2017-11-30T12:46:38Z,42.805,6.029,13.2951,4.59985,2472.069,2017-11-30T14:48:06Z
2017-11-30T12:49:40Z,42.805,6.029,13.2948,4.59944,2472.092,2017-11-30T14:51:09Z
2017-11-30T12:52:43Z,42.805,6.029,13.2948,4.60009,2472.055,2017-11-30T14:54:12Z
2017-11-30T12:55:46Z,42.805,6.029,13.2951,4.60001,2472.055,2017-11-30T14:57:15Z
2017-11-30T12:58:49Z,42.805,6.029,13.2954,4.59999,2472.077,2017-11-30T15:00:18Z
2017-11-30T13:01:52Z,42.805,6.029,13.2947,4.59983,2472.055,2017-11-30T15:03:21Z
2017-11-30T13:04:55Z,42.805,6.029,13.2942,4.59975,2472.069,2017-11-30T15:06:24Z
2017-11-30T13:07:58Z,42.805,6.029,13.2948,4.59981,2472.092,2017-11-30T15:09:26Z
2017-11-30T13:11:01Z,42.805,6.029,13.2946,4.59972,2472.055,2017-11-30T15:12:29Z
2017-11-30T13:14:04Z,42.805,6.029,13.2948,4.60006,2472.069,2017-11-30T15:15:32Z
2017-11-30T13:17:07Z,42.805,6.029,13.2949,4.59982,2472.055,2017-11-30T15:18:35Z
2017-11-30T13:20:09Z,42.805,6.029,13.2945,4.59979,2472.047,2017-11-30T15:21:38Z
2017-11-30T13:23:12Z,42.805,6.029,13.2948,4.59975,2472.077,2017-11-30T15:24:41Z
2017-11-30T13:26:15Z,42.805,6.029,13.2943,4.59975,2472.115,2017-11-30T15:27:44Z
2017-11-30T13:29:18Z,42.805,6.029,13.2946,4.59983,2472.092,2017-11-30T15:30:47Z
2017-11-30T13:32:21Z,42.805,6.029,13.2945,4.59975,2472.069,2017-11-30T15:33:50Z
2017-11-30T13:35:24Z,42.805,6.029,13.2945,4.59980,2472.092,2017-11-30T15:36:53Z
2017-11-30T13:38:27Z,42.805,6.029,13.2948,4.59972,2472.115,2017-11-30T15:39:55Z
2017-11-30T13:41:30Z,42.805,6.029,13.2947,4.59975,2472.115,2017-11-30T15:42:58Z
2017-11-30T13:44:33Z,42.805,6.029,13.2948,4.59975,2472.092,2017-11-30T15:46:01Z
2017-11-30T13:47:35Z,42.805,6.029,13.2945,4.59984,2472.115,2017-11-30T15:49:04Z
2017-11-30T13:50:38Z,42.805,6.029,13.2948,4.59979,2472.115,2017-11-30T15:52:07Z
2017-11-30T13:53:41Z,42.805,6.029,13.2954,4.59978,2472.077,2017-11-30T15:55:10Z
2017-11-30T13:56:44Z,42.805,6.029,13.2949,4.59979,2472.115,2017-11-30T15:58:13Z
2017-11-30T13:59:47Z,42.805,6.029,13.2951,4.59978,2472.115,2017-11-30T16:01:16Z
2017-11-30T14:02:50Z,42.805,6.029,13.2949,4.59977,2472.077,2017-11-30T16:04:19Z
2017-11-30T14:05:53Z,42.805,6.029,13.2944,4.59981,2472.1,2017-11-30T16:07:22Z
2017-11-30T14:08:56Z,42.805,6.029,13.2953,4.59981,2472.115,2017-11-30T16:10:24Z
2017-11-30T14:11:59Z,42.805,6.029,13.2947,4.59981,2472.1,2017-11-30T16:13:27Z
2017-11-30T14:15:02Z,42.805,6.029,13.2950,4.59972,2472.1,2017-11-30T16:16:30Z
2017-11-30T14:18:04Z,42.805,6.029,13.2950,4.59974,2472.16,2017-11-30T16:19:33Z
2017-11-30T14:21:07Z,42.805,6.029,13.2954,4.59982,2472.137,2017-11-30T16:22:36Z
2017-11-30T14:24:10Z,42.805,6.029,13.2947,4.59975,2472.137,2017-11-30T16:25:39Z
2017-11-30T14:27:13Z,42.805,6.029,13.2949,4.59974,2472.137,2017-11-30T16:28:42Z
2017-11-30T14:30:16Z,42.805,6.029,13.2948,4.59980,2472.1,2017-11-30T16:31:45Z
2017-11-30T14:33:19Z,42.805,6.029,13.2948,4.59978,2472.123,2017-11-30T16:34:48Z
2017-11-30T14:36:22Z,42.805,6.029,13.2950,4.59978,2472.16,2017-11-30T16:37:50Z
2017-11-30T14:39:25Z,42.805,6.029,13.2951,4.59990,2472.137,2017-11-30T16:40:53Z
2017-11-30T14:42:28Z,42.805,6.029,13.2951,4.59994,2472.123,2017-11-30T16:43:56Z
2017-11-30T14:45:30Z,42.805,6.029,13.2950,4.59987,2472.145,2017-11-30T16:46:59Z
2017-11-30T14:48:33Z,42.805,6.029,13.2954,4.59990,2472.145,2017-11-30T16:50:02Z
2017-11-30T14:51:36Z,42.805,6.029,13.2955,4.59987,2472.16,2017-11-30T16:53:05Z
2017-11-30T14:54:39Z,42.805,6.029,13.2940,4.59977,2472.145,2017-11-30T16:56:08Z
2017-11-30T14:57:42Z,42.805,6.029,13.2952,4.59984,2472.16,2017-11-30T16:59:11Z